Theta_e
319 325 329 334 340 344 343 341 342 343 344 346 350 347 347 345 352 355 341 341 343 332 325 326 327 326 327 326 327 327 328 328 327 325 325 326 330 335 335 328 321 320 320 319 317 315 314 313 313
318 320 328 333 339 342 347 340 344 344 345 345 348 344 340 344 348 343 339 340 342 336 328 326 326 326 325 325 325 326 326 326 325 327 333 335 332 324 321 321 318 315 313 313 313 313 313 313 313
317 321 329 334 337 339 343 342 343 343 344 343 343 341 341 344 347 343 342 342 339 336 325 325 324 324 323 324 324 324 325 327 332 335 333 328 322 319 316 314 313 313 313 313 314 314 314 314 314
323 328 330 333 336 337 340 341 341 342 341 344 342 342 347 345 348 343 340 341 343 346 327 324 324 324 325 327 329 330 332 336 336 333 325 321 317 314 313 313 314 314 315 315 315 314 314 314 315
325 326 329 332 336 336 338 339 340 342 342 342 337 344 348 347 349 343 342 342 342 345 326 325 326 328 331 333 336 338 337 336 331 323 321 315 313 313 314 315 315 315 315 316 316 316 316 316 316
323 326 329 336 336 335 336 338 339 341 340 341 339 346 347 349 344 343 342 342 344 343 331 327 329 332 336 340 339 335 331 327 323 320 314 314 314 314 315 315 316 317 317 316 317 317 317 316 316
322 325 330 335 335 336 336 338 337 338 340 339 341 340 342 346 343 343 341 342 345 342 337 330 332 336 340 337 333 326 324 323 319 314 314 315 315 316 317 317 318 319 320 320 319 318 317 317 317
323 327 330 332 334 334 333 335 337 338 338 339 336 336 339 345 343 343 342 344 345 345 344 344 336 339 339 332 326 324 325 318 314 315 322 328 327 327 325 322 322 321 321 321 320 319 319 319 319
324 328 334 334 331 331 331 333 336 336 339 337 342 338 337 346 344 343 342 342 345 346 346 346 344 340 338 327 326 326 319 315 316 319 326 329 329 324 326 325 323 323 322 322 321 320 319 320 320
326 331 335 333 330 329 330 331 335 334 335 338 341 344 343 345 343 342 342 341 343 347 347 344 342 339 336 331 326 321 324 330 328 329 328 329 327 325 325 326 324 324 322 322 321 320 319 319 319
328 332 335 330 328 328 328 329 330 331 333 336 336 335 347 344 343 342 342 341 341 346 345 342 337 335 333 328 330 328 331 330 329 330 328 327 326 327 325 325 324 324 323 322 321 318 319 319 319
329 331 330 329 327 327 328 329 330 330 332 335 334 338 339 347 343 343 342 340 340 345 343 340 335 332 331 332 332 331 331 331 331 330 326 326 325 326 324 326 325 325 323 322 321 319 319 319 318
328 331 329 328 327 327 328 328 329 329 330 334 335 341 334 335 335 343 341 340 339 343 342 337 334 333 334 333 332 332 332 331 329 328 327 325 323 325 323 324 326 325 323 323 321 319 319 318 317
329 330 328 327 328 328 328 328 329 330 332 332 329 338 341 338 334 341 339 339 340 339 339 336 337 337 335 335 334 332 331 328 328 327 327 326 323 323 323 324 325 324 324 323 319 319 318 317 316
328 328 329 328 328 328 327 327 328 330 329 328 328 328 336 338 339 340 332 335 336 328 336 338 338 336 334 333 329 327 326 326 326 325 324 323 324 324 323 323 323 323 323 321 320 319 316 314 314
326 327 329 330 328 327 327 326 331 330 330 329 328 339 348 341 341 342 337 335 328 332 329 334 329 326 326 326 327 326 328 327 326 325 321 324 323 321 321 321 322 321 320 319 319 317 316 313 313
327 326 328 329 328 328 328 327 330 330 330 330 330 349 348 341 337 339 339 336 334 331 330 330 328 327 326 327 327 329 328 322 321 321 321 321 321 322 320 320 319 319 319 318 317 315 313 313 311
327 327 327 327 329 329 328 327 329 330 331 331 336 348 343 339 336 336 336 332 330 332 328 328 327 326 326 328 327 324 322 321 321 321 321 320 319 321 319 319 319 319 318 315 313 313 311 310 311
327 327 327 328 329 328 328 328 329 330 332 333 337 345 340 337 335 334 332 333 333 330 328 327 326 327 325 321 322 321 321 321 321 320 321 321 321 321 320 319 319 318 316 311 313 311 310 311 312
328 328 329 329 329 328 328 328 329 332 335 335 345 343 339 336 334 332 329 330 330 328 326 326 324 322 321 322 321 322 321 321 322 320 322 323 322 322 321 319 317 315 312 312 312 310 311 311 312
330 330 330 328 327 328 328 328 329 336 338 336 339 339 336 334 333 332 329 327 326 324 323 322 323 321 322 321 322 323 322 322 323 324 324 324 322 322 319 317 316 314 311 311 311 310 311 312 311
329 329 328 328 329 328 329 329 336 338 331 330 337 335 335 333 333 331 328 329 327 326 327 324 325 323 320 320 321 322 323 323 323 323 323 322 320 320 314 317 315 313 310 311 311 310 311 311 311
329 329 329 327 327 328 326 331 333 340 335 339 335 332 329 326 329 328 328 327 326 325 324 324 320 319 319 318 317 315 317 319 319 319 319 319 316 314 314 314 313 311 310 310 310 311 310 310 311
329 327 327 328 328 328 330 331 342 344 342 336 330 326 322 322 324 324 323 324 323 323 321 317 316 317 317 317 317 317 317 317 316 313 314 314 315 314 313 312 311 312 311 311 310 310 310 310 310
327 328 327 329 330 324 326 331 343 337 334 332 329 324 320 319 320 319 317 316 316 316 316 316 316 315 315 313 314 315 315 315 314 314 315 314 313 313 312 311 311 310 311 310 310 311 311 311 309
326 327 327 330 329 324 330 332 341 332 329 329 325 321 317 317 317 317 316 316 316 316 316 315 315 314 315 314 313 313 314 314 313 313 312 311 312 312 312 311 310 310 310 311 310 311 310 309 310
328 328 328 330 328 329 330 340 336 332 330 328 325 321 318 317 318 317 317 317 316 315 315 315 314 314 313 313 313 312 311 311 311 310 310 310 310 311 311 311 311 311 311 311 311 310 310 308 309
329 326 328 330 329 326 326 332 335 333 334 328 324 322 320 319 318 317 317 315 314 315 314 314 313 313 312 312 311 310 310 310 310 311 311 310 310 310 310 311 310 311 311 311 310 309 309 309 310
327 327 328 328 328 329 328 331 329 330 330 326 323 321 319 318 318 316 314 315 316 314 313 312 312 311 310 309 309 309 309 310 310 310 310 310 310 309 309 310 310 311 311 310 310 309 310 309 309
329 329 329 327 327 326 327 330 328 326 326 324 322 320 320 319 318 316 317 315 313 313 312 311 309 309 310 310 309 310 310 310 310 308 308 309 309 309 310 309 310 310 310 310 309 309 308 308 310
Wind_Speed
19 18 18 14 7 4 1 13 17 15 13 14 13 12 18 13 8 10 15 12 12 9 13 12 12 13 12 12 12 12 11 11 11 12 13 13 13 13 12 12 12 12 11 11 10 10 10 11 12
19 18 13 13 10 1 6 8 13 15 15 14 12 15 11 11 12 20 19 16 14 11 13 13 13 14 13 13 13 12 12 12 13 14 14 13 12 12 12 13 12 11 11 12 12 13 14 14 15
20 16 15 5 5 6 7 13 12 13 6 4 10 15 13 11 15 18 18 20 13 12 14 14 14 15 15 14 14 14 14 14 14 13 12 12 12 12 11 11 12 12 13 13 14 15 16 17 18
11 13 15 11 14 10 14 13 9 11 8 14 19 8 11 11 16 17 20 18 17 12 14 16 16 16 16 17 16 16 15 14 13 12 12 12 11 11 12 12 12 12 13 14 15 16 18 19 20
15 14 13 16 9 12 9 10 4 5 5 21 22 7 17 13 19 23 23 19 19 17 14 17 17 17 16 16 15 14 13 12 12 12 11 10 11 11 10 10 11 13 14 16 17 19 20 22 22
16 21 14 4 23 9 5 9 5 11 4 20 16 21 17 18 22 23 21 19 22 15 17 18 18 17 16 15 14 12 12 13 12 10 9 10 9 8 8 10 12 14 15 16 18 20 23 24 24
16 14 12 14 14 11 6 2 6 3 33 11 17 21 13 18 21 22 21 20 20 20 16 19 19 18 16 14 14 13 14 12 10 10 9 8 7 6 8 12 14 15 17 19 20 25 28 25 22
21 14 25 8 8 5 7 4 2 19 11 16 13 13 16 22 22 22 22 22 23 23 18 18 18 18 17 17 15 15 13 11 11 10 10 10 12 11 13 17 19 19 22 24 26 28 27 24 21
18 12 11 18 2 7 9 7 7 4 14 24 12 26 28 24 24 23 24 21 32 25 25 22 19 18 15 17 16 14 11 9 8 8 11 8 10 9 13 15 17 20 20 21 25 24 24 23 22
16 8 10 10 10 10 4 1 13 4 7 9 20 24 35 28 27 25 26 24 26 30 28 26 21 24 15 16 16 13 11 8 7 5 7 4 4 6 7 11 15 16 17 18 19 17 18 22 28
17 11 16 5 9 9 13 10 4 11 10 5 10 35 33 21 21 23 22 21 24 28 21 31 24 24 19 12 14 9 8 1 2 3 5 6 4 6 3 11 8 14 14 14 15 25 22 25 28
10 4 8 11 8 7 10 10 9 7 4 9 16 28 16 6 19 23 22 22 24 28 32 27 26 21 16 17 13 11 7 7 3 2 3 1 7 9 5 10 12 13 15 16 18 26 24 26 25
10 13 4 3 6 3 10 9 8 14 10 7 3 33 33 24 50 25 21 20 23 36 38 33 25 19 21 16 17 13 10 8 8 6 5 7 3 11 9 9 14 15 16 17 28 23 25 26 26
7 14 8 4 2 6 4 16 18 3 10 14 16 18 26 21 13 20 35 43 40 40 45 32 25 21 16 16 15 10 5 7 7 5 9 11 11 12 12 10 10 16 19 23 26 20 23 27 32
9 10 13 13 5 3 4 17 11 12 8 10 13 19 7 11 12 17 37 27 36 32 21 13 11 10 14 11 11 7 5 12 10 22 9 6 12 10 13 11 11 18 20 25 19 25 34 31 31
10 12 15 11 7 7 3 11 12 9 11 14 15 20 34 28 23 16 4 10 25 36 15 22 18 19 15 19 20 33 36 38 30 14 14 14 14 22 25 26 17 19 24 27 27 27 30 34 26
13 10 16 10 6 1 7 10 10 7 7 12 10 26 30 32 32 23 16 10 21 24 26 28 26 22 21 14 10 15 15 6 6 11 16 19 25 26 23 21 23 26 27 26 26 30 31 26 25
14 8 7 1 12 8 9 15 11 6 7 7 11 23 27 30 31 29 25 22 22 27 25 17 12 9 4 4 5 6 9 8 11 17 20 20 22 21 24 22 19 21 23 28 28 26 26 19 18
13 10 9 9 8 8 9 13 9 10 5 4 8 22 25 27 26 24 23 18 15 16 14 11 6 2 6 10 6 9 13 14 15 18 15 17 20 21 23 20 23 28 30 24 22 26 16 17 19
10 10 12 12 15 13 15 19 18 8 14 11 20 22 23 23 24 22 21 19 15 12 12 10 8 8 6 3 7 14 17 13 11 12 16 16 17 17 19 24 21 26 28 11 18 16 16 17 16
12 11 12 14 16 17 20 17 20 19 33 43 37 32 25 22 21 19 19 19 17 18 16 11 6 2 3 7 13 13 12 14 14 12 13 13 9 17 21 23 17 21 28 10 13 15 14 16 16
8 12 14 16 17 16 19 15 12 18 23 25 12 25 20 19 17 18 17 16 16 13 9 6 5 6 8 9 11 16 15 22 19 17 15 15 18 21 18 18 20 21 23 10 10 12 12 14 15
12 14 14 21 21 20 19 3 3 17 16 15 17 21 19 15 14 16 12 7 8 8 10 7 13 12 10 12 12 12 15 15 17 16 17 21 22 16 13 17 17 22 14 11 11 11 13 11 14
8 17 20 21 19 13 0 4 9 12 17 15 16 17 14 13 17 18 15 10 12 9 12 18 21 19 15 15 15 16 16 18 20 20 15 14 13 16 14 15 17 16 14 11 12 12 11 10 12
15 16 9 12 9 11 12 4 9 14 16 17 12 11 11 17 18 18 19 19 18 16 14 12 11 13 13 19 15 16 18 18 17 16 13 14 12 13 13 13 16 17 12 13 15 12 10 10 12
16 12 8 14 12 15 13 6 5 11 16 21 17 13 14 17 19 19 18 17 17 16 16 17 16 19 15 15 19 15 14 13 14 15 16 17 12 15 15 16 15 14 14 15 16 12 11 9 10
7 8 14 12 16 11 0 8 7 6 9 15 15 14 14 12 11 12 14 10 11 10 9 13 17 16 16 18 12 16 15 16 14 13 13 12 12 15 16 15 16 14 13 14 12 10 11 9 8
8 14 6 10 9 12 14 8 8 1 13 12 14 14 12 13 13 12 11 15 13 13 12 15 17 17 17 16 17 16 16 16 14 14 16 15 16 17 16 16 17 13 13 12 10 9 8 8 7
12 11 10 6 7 10 10 6 15 18 17 8 17 23 15 9 7 13 16 13 14 15 18 16 15 17 16 16 16 16 18 19 13 14 15 15 17 16 15 15 15 11 9 8 7 5 8 9 14
8 10 5 4 8 8 11 4 12 13 14 10 14 15 8 4 7 12 12 12 18 15 17 17 19 17 19 20 21 20 17 17 15 17 15 12 13 13 13 13 10 7 7 6 4 7 9 10 12
Wind_Direction
306 310 331 289 259 66 322 298 43 41 65 42 65 79 94 70 9 103 134 122 128 139 133 134 135 134 134 132 132 132 129 127 123 118 115 111 106 98 90 82 77 74 68 59 47 35 26 18 11
297 299 284 263 268 33 315 220 53 72 90 93 111 117 117 101 106 127 129 138 152 135 139 141 140 136 135 134 133 129 126 126 123 121 118 113 103 94 90 83 73 63 53 45 37 27 19 13 8
289 292 288 236 0 231 178 200 86 99 108 102 100 118 139 116 124 136 150 154 155 140 147 144 138 135 133 131 129 127 126 128 128 126 116 106 101 95 84 75 67 56 47 37 27 19 11 4 359
285 296 241 262 240 238 51 86 102 129 111 71 60 97 91 109 144 151 145 135 134 139 146 141 138 134 133 133 132 131 135 136 132 122 114 108 97 88 78 69 57 45 34 24 16 11 6 360 356
268 271 275 268 271 58 83 86 110 71 112 115 138 149 98 115 132 139 139 144 141 165 147 143 141 138 138 135 134 134 136 131 126 120 112 105 96 86 74 59 42 28 20 17 13 8 2 356 353
263 241 261 83 270 109 49 107 292 125 133 139 130 134 114 135 139 144 148 147 149 143 150 148 145 142 143 141 139 140 137 134 126 116 107 94 84 74 59 40 29 22 18 14 9 5 2 358 355
253 267 253 252 244 93 64 68 175 156 25 77 95 52 315 146 149 151 152 152 149 146 155 154 151 150 149 146 146 143 139 135 127 115 98 79 58 40 31 41 24 19 15 11 7 5 2 5 9
246 267 277 234 102 123 89 235 343 93 63 290 120 166 231 165 160 160 158 159 162 156 150 147 158 156 156 155 151 144 141 133 122 104 80 66 33 21 15 11 8 8 11 10 5 6 9 358 358
256 265 339 292 324 110 127 262 322 83 160 230 163 156 178 168 169 167 166 167 163 158 154 158 151 139 149 154 149 142 131 120 107 86 68 51 37 5 345 355 5 6 13 9 7 1 359 348 325
248 241 216 320 35 339 10 272 190 211 222 195 147 146 154 168 175 176 175 177 170 157 159 153 151 149 145 143 140 131 111 83 73 63 39 49 342 9 7 344 359 4 7 2 360 347 336 314 320
241 269 220 71 30 344 325 309 220 312 302 198 107 309 143 163 185 189 186 181 175 169 162 152 140 155 146 127 119 99 94 83 22 163 112 354 20 324 319 355 337 347 351 331 326 336 330 323 327
277 336 357 359 8 313 272 319 343 281 314 164 208 158 196 133 219 210 196 192 183 176 155 140 139 140 161 119 146 121 147 83 135 360 317 16 17 313 1 328 357 332 331 323 321 347 334 330 334
257 285 101 26 276 292 352 297 293 318 346 172 165 168 161 52 256 221 209 210 182 153 147 135 138 152 124 136 135 125 113 122 83 35 342 317 328 326 318 329 350 337 319 302 329 346 331 330 325
232 277 300 255 58 269 301 311 311 317 343 335 325 187 166 181 194 353 68 59 64 24 107 124 132 136 146 128 129 139 144 70 44 319 311 292 295 303 320 331 329 324 307 309 338 331 319 308 307
305 277 254 224 192 40 352 281 280 35 10 322 309 303 270 102 156 153 55 49 78 57 48 98 135 199 187 174 151 127 336 329 285 293 293 298 289 288 301 308 327 313 302 325 330 308 315 317 316
241 251 267 210 131 134 228 304 80 36 348 327 329 44 57 58 75 81 116 286 227 257 246 209 181 164 214 203 245 279 282 273 269 253 278 266 281 303 302 300 309 305 311 317 311 317 312 317 319
216 243 242 147 130 37 288 292 129 103 17 323 330 67 67 66 69 66 85 163 213 214 195 181 173 173 187 215 252 279 280 239 262 271 261 276 286 293 298 302 313 310 314 320 314 314 319 317 326
344 267 352 113 82 36 326 302 300 46 50 344 38 67 70 73 73 81 92 120 160 170 170 176 179 185 203 323 349 35 358 310 286 269 269 277 283 292 283 300 312 306 312 323 324 322 320 328 334
319 337 329 318 49 2 307 290 276 259 124 41 74 82 76 70 70 80 93 107 141 167 175 168 151 76 100 103 119 304 275 281 284 282 293 285 289 286 289 304 309 313 323 331 316 320 337 341 344
305 308 21 332 358 333 306 286 270 149 91 52 80 76 66 70 70 78 87 98 104 122 126 124 137 145 150 203 284 307 302 306 305 287 299 297 288 283 310 313 315 314 331 332 318 332 340 333 338
340 10 7 328 318 298 283 295 308 103 62 55 25 63 56 55 63 67 71 75 93 104 114 120 100 111 251 291 328 337 328 313 312 302 308 295 269 292 309 315 302 318 326 313 313 334 322 331 340
340 5 324 306 302 293 297 285 96 84 78 84 82 62 67 63 69 85 100 99 107 115 135 145 24 1 23 341 333 333 313 307 310 306 308 296 285 298 316 289 297 313 321 310 315 318 330 335 345
316 321 305 309 292 281 280 7 138 113 93 98 76 69 66 72 94 96 113 99 108 72 50 29 16 22 352 343 338 340 325 326 315 302 298 292 302 311 293 289 292 314 309 302 297 313 322 341 325
329 346 309 289 275 263 148 255 60 29 95 82 73 67 72 83 85 78 68 55 32 10 356 25 17 12 8 358 344 322 307 301 302 307 316 323 299 304 295 299 316 306 301 296 307 301 309 310 317
352 317 321 321 347 322 335 1 71 87 90 104 102 86 96 91 80 75 66 52 44 34 22 10 357 342 329 333 333 320 315 310 318 317 295 288 308 295 304 314 316 304 309 310 299 308 306 300 317
320 338 319 326 319 302 343 341 96 111 104 99 110 118 105 82 74 69 59 44 24 14 355 0 354 346 330 315 311 312 301 299 295 299 308 306 287 291 294 300 301 302 303 303 302 302 302 309 324
342 329 319 291 278 298 162 80 90 83 110 108 104 90 84 84 78 75 62 35 11 16 343 324 332 342 340 333 325 315 313 316 312 316 310 312 312 306 297 293 297 294 300 292 296 304 311 309 323
263 339 325 335 329 307 316 101 54 69 136 104 105 99 101 86 71 62 17 356 0 8 9 347 334 331 320 314 317 317 315 317 315 317 316 317 309 296 293 290 299 293 297 294 294 305 314 305 300
333 330 339 351 316 318 332 40 39 38 95 63 99 92 97 79 43 2 1 16 13 354 337 346 354 340 338 338 329 332 325 314 314 309 304 312 311 316 318 318 310 305 302 303 304 317 332 321 312
339 318 323 313 314 318 306 314 29 52 69 115 99 103 91 43 355 354 16 5 341 357 355 349 339 344 344 339 339 327 317 314 318 319 322 330 342 340 334 332 327 327 319 300 330 340 317 311 309